Regional Weather Roundup
Issued by NWS

Home | Current Version | Previous Version | Text Only | Print | Product List | Glossary Off
Versions: 1 2 3 4 5 6 7 8 9 10 11 12 13 14 15 16 17 18 19 20 21 22 23 24 25 26 27 28 29 30 31 32 33 34 35 36 37 38 39 40 41 42 43 44 45 46 47 48 49 50

000
ASUS43 KDTX 241001
RWRMI
MICHIGAN HOURLY REGIONAL WEATHER ROUNDUP
NATIONAL WEATHER SERVICE DETROIT/PONTIAC MI
600 AM EDT FRI OCT 24 2014

NOTE: "FAIR" INDICATES FEW OR NO CLOUDS BELOW 12,000 FEET WITH NO
SIGNIFICANT WEATHER AND/OR OBSTRUCTION TO VISIBILITY.

MIZ047>049-052>055-059>063-066>070-074>076-081>083-241100-
SOUTHEAST LOWER MICHIGAN

CITY           SKY/WX    TMP DP  RH WIND       PRES   REMARKS
ADRIAN         PTCLDY    34  32  92 CALM      30.09S
ALMA           MOCLDY    39  37  90 CALM      30.05F
ANN ARBOR      PTCLDY    32  28  85 CALM      30.08R FOG
BAD AXE        MOCLDY    32  32 100 CALM      30.07S FOG
CARO           MOCLDY    33  32  97 CALM      30.06S FOG
DETROIT CITY   PTCLDY    40  36  86 CALM      30.09R
DETROIT        CLOUDY    38  35  89 CALM      30.09S
FLINT          PTCLDY    36  33  89 S5        30.07S WCI  32
GROSSE ILE     PTCLDY    39  36  87 CALM      30.08S
HILLSDALE      PTCLDY    36  36 100 CALM      30.07S FOG
HOWELL         CLEAR     33  32  94 SE3       30.07R

CITY           SKY/WX    TMP DP  RH WIND       PRES   REMARKS
JACKSON        PTCLDY    35  32  88 CALM      30.07R
LAMBERTVILLE   MOCLDY    37  36  93 CALM      30.10R FOG
LANSING        CLEAR     40  36  86 S3        30.06F
LAPEER         FAIR      33  32  99 CALM      30.08R
MASON          CLEAR     36  35  95 CALM      30.07R FOG
MONROE         MOCLDY    36  36 100 CALM      30.08R FOG
MT. CLEMENS    MOCLDY    37  36  99 W2        30.06R
PONTIAC        MOCLDY    35  32  88 CALM      30.07R
PORT HOPE        N/A     42  38  85 SW6       30.04S
PORT HURON     MOCLDY    32  32 100 CALM      30.08S FOG
TRI CITIES     MOCLDY    43  37  79 S5        30.06S
TROY           PTCLDY    39  35  87 CALM      30.10R
SAGINAW HB     MOCLDY    39  39 100 CALM      30.05S
$$
MIZ043>046-050>051-056>058-064>065-071>073-077>080-241100-
SOUTHWEST LOWER MICHIGAN

CITY           SKY/WX    TMP DP  RH WIND       PRES   REMARKS
BATTLE CREEK   MOCLDY    42  39  89 S5        30.07S FOG
BENTON HARBOR  CLOUDY    51  43  74 SW3       30.06R
BIG RAPIDS     CLOUDY    46  46 100 CALM      30.04R
COLDWATER      MOCLDY    43  41  93 CALM      30.07S
FREMONT        CLOUDY    48  45  90 CALM      30.04S
HOLLAND        CLOUDY    52  45  77 S5        30.05S
GRAND RAPIDS   MOCLDY    46  41  82 CALM      30.06R
IONIA          FAIR      41  40  93 S3        30.05S
KALAMAZOO      CLOUDY    47  41  80 S5        30.07S HAZE
LUDINGTON      CLOUDY    52  49  90 SW6       30.03F
MARSHALL       PTCLDY    36  35  96 S5        30.06S FOG     WCI  32
MOUNT PLEASANT MOCLDY    39  38  94 CALM      30.04S FOG
MUSKEGON       CLOUDY    55  48  77 W6        30.04S
SOUTH HAVEN    CLOUDY    52  45  75 SW3       30.06R
$$
MIZ016>042-241100-
NORTHERN LOWER MICHIGAN

CITY           SKY/WX    TMP DP  RH WIND       PRES   REMARKS
ALPENA         CLOUDY    37  36  96 CALM      30.04R
BEAVER ISLAND  CLOUDY    51  50  94 SW6       30.00S FOG
BELLAIRE       CLOUDY    46  43  90 CALM      30.02F
CADILLAC       CLOUDY    46  44  92 CALM      30.03S
CHARLEVOIX     CLOUDY    49  45  85 S5        30.03F
FRANKFORT      CLOUDY    52  48  89 S3        30.01S FOG
GAYLORD        CLOUDY    44  39  82 CALM      30.02S
GRAYLING       CLOUDY    41  39  90 CALM      30.04S
HARBOR SPRINGS CLOUDY    46  42  85 CALM      30.01S
HOUGHTON LAKE  CLOUDY    40  39  97 CALM      30.04S
OSCODA         CLOUDY    37  36  96 CALM      30.04S
PELLSTON       CLOUDY    43  40  89 CALM      30.02S
TRAVERSE CITY  CLOUDY    51  43  74 CALM      30.01F
$$
MIZ007>008-015-241100-
EASTERN UPPER MICHIGAN

CITY           SKY/WX    TMP DP  RH WIND       PRES   REMARKS
KINROSS        CLOUDY    45  43  93 SE5       30.00S
MACKINAC ISLAN CLOUDY    49  43  80 S7        30.00S
NEWBERRY       CLOUDY    47  47  98 SW6       29.98S FOG
S. S. MARIE    CLOUDY    42  40  92 CALM      30.00S
MUNISING         N/A     49  45  86 CALM      29.98S
$$
MIZ004>006-011>014-085-241100-
CENTRAL UPPER MICHIGAN

CITY           SKY/WX    TMP DP  RH WIND       PRES   REMARKS
MANISTIQUE     CLOUDY    48  47  99 CALM      29.99R FOG
ESCANABA       CLOUDY    46  45  93 SW3       29.99R
MENOMINEE      CLOUDY    48  45  87 W3        30.00S
SAWYER-GWINN   FOG       43  42  96 SW6       29.97S VSB 1
$$
MIZ001>003-009>011-084-241100-
WESTERN UPPER MICHIGAN

CITY           SKY/WX    TMP DP  RH WIND       PRES   REMARKS
IRON MOUNTAIN  CLOUDY    44  43  96 W5        29.98S FOG
HOUGHTON       FOG       45  44  97 S5        29.94S VSB 1/4
COPPER HARBOR    N/A     48  45  89 CALM      29.95R
IRONWOOD       MOCLDY    46  46 100 S8        29.93S
$$

ABBREVIATIONS USED IN REMARKS
   TC - TEMPERATURE IN CELSIUS
  WCI - WIND CHILL INDEX
   HX - HEAT INDEX
  VSB - VISIBILITY




USA.gov is the U.S. government's official web portal to all federal, state and local government web resources and services.